Regional Weather Roundup
Issued by NWS

Home | Current Version | Previous Version | Text Only | Print | Product List | Glossary Off
Versions: 1 2 3 4 5 6 7 8 9 10 11 12 13 14 15 16 17 18 19 20 21 22 23 24 25 26 27 28 29 30 31 32 33 34 35 36 37 38 39 40 41 42 43 44 45 46 47 48 49 50

986
ASUS43 KDMX 241301
RWRIA

WEATHER ROUNDUP FOR IOWA
NATIONAL WEATHER SERVICE DES MOINES IA
800 AM CDT THU MAY 24 2018

NOTE: "FAIR" INDICATES FEW OR NO CLOUDS BELOW 12,000 FEET WITH NO
SIGNIFICANT WEATHER AND/OR OBSTRUCTIONS TO VISIBILITY.

* - THESE STATIONS ARE NOT NWS STATIONS...THUS NOT UNDER NWS
QUALITY CONTROL.  THEY ALSO DO NOT REPORT WEATHER SUCH
AS PRECIPITATION OR FOG.

IAZ001>003-012>014-020>022-031>034-043>046-241400-
   NORTHWEST IOWA

CITY           SKY/WX    TMP DP  RH WIND       PRES   REMARKS
CARROLL *      CLOUDY    73  64  73 S14       30.06F
CHEROKEE *     CLOUDY    70  67  89 S6        30.05S
DENISON *      CLOUDY    72  66  83 S9        30.07S
LE MARS *      PTSUNNY   72  66  83 S7        30.04R
ORANGE CITY *  CLOUDY    73  66  78 S8        30.05R
SHELDON *      CLOUDY    72  68  88 S9        30.03R
SIOUX CITY     PTSUNNY   70  64  81 SE6       30.03S
SPENCER        PTSUNNY   71  65  81 S10       30.06R
STORM LAKE *   CLOUDY    70  66  88 S12       30.07R
$$

IAZ055>058-069>071-079>083-090>094-241400-
   SOUTHWEST IOWA

CITY           SKY/WX    TMP DP  RH WIND       PRES   REMARKS
ATLANTIC *     SUNNY     72  66  83 S9        30.07S
AUDUBON *      CLOUDY    72  66  83 S7        30.09R
CLARINDA *     MOSUNNY   72  66  83 S8        30.10R
COUNCIL BLFS * MOSUNNY   70  70 100 S10       30.06R
CRESTON *      SUNNY     72  64  78 S13       30.11S
HARLAN  *      CLOUDY    72  66  83 S10G17    30.09S
LAMONI         MOSUNNY   70  65  84 S6        30.11S
RED OAK *      MOSUNNY   73  66  78 S10       30.07S
SHENANDOAH *   SUNNY     73  66  78 S9        30.08R
$$

IAZ047>049-059>061-072>074-084-241400-
   CENTRAL IOWA

CITY           SKY/WX    TMP DP  RH WIND       PRES   REMARKS
AMES           MOSUNNY   71  65  81 SE8       30.09S
ANKENY *       SUNNY     72  66  83 S7        30.11S
BOONE *        SUNNY     73  66  78 S13       30.08S
CHARITON *     SUNNY     72  66  83 S9        30.12S
DES MOINES     MOSUNNY   72  66  81 S8        30.09S
GRINNELL*      CLOUDY    70  64  80 SE8       30.13F
KNOXVILLE *    SUNNY     70  64  83 SE7       30.11S
MARSHALLTOWN   SUNNY     70  66  87 SE12      30.10F
NEWTON *       CLOUDY    70  64  83 S12       30.12S
PELLA *        SUNNY     71  64  79 SE5       30.13S
PERRY *        FAIR      74  67  78 S13       30.08S
$$

IAZ004>006-015-016-023>025-035-036-241400-
   NORTH CENTRAL IOWA

CITY           SKY/WX    TMP DP  RH WIND       PRES   REMARKS
ALGONA *       CLOUDY    72  66  83 S12       30.07S
CLARION *      SUNNY     72  66  83 S10       30.08S
ESTHERVILLE    CLOUDY    69  66  90 S13       30.05R
FORT DODGE *   MOSUNNY   72  66  81 S8        30.08S
MASON CITY     CLOUDY    70  65  84 S12       30.11R
FOREST CITY *  FAIR      70  66  88 S9        30.09R
WEBSTER CITY * SUNNY     72  66  83 S13       30.06S
IOWA FALLS *   FAIR      70  65  85 SE10G16   30.11S
$$

IAZ007>011-017>019-026>030-037>042-050>054-066-241400-
   NORTHEAST IOWA

CITY           SKY/WX    TMP DP  RH WIND       PRES   REMARKS
CEDAR RAPIDS   FAIR      70  61  73 SE7       30.14S
CLINTON *        N/A     69  58  67 SE8       30.17F
DECORAH *      FAIR      70  61  73 S8        30.13S
DUBUQUE        FAIR      69  57  65 S9        30.17S
MONTICELLO *   FAIR      70  59  68 SE7       30.15S
OELWEIN *      FAIR      70  61  73 S12       30.14S
WATERLOO       FAIR      70  61  73 S9        30.11F
$$

IAZ064-065-067-068-078-241400-
   EAST CENTRAL IOWA

CITY           SKY/WX    TMP DP  RH WIND       PRES   REMARKS
DAVENPORT      FAIR      69  56  62 S8        30.18S
IOWA CITY      FAIR      69  60  73 CALM      30.16S
MUSCATINE *    FAIR      70  59  68 SE3       30.15S
QUAD CITIES    FAIR      70  59  68 CALM      30.15S
$$

IAZ062-063-075>077-085>089-095>099-241400-
   SOUTHEAST IOWA

CITY           SKY/WX    TMP DP  RH WIND       PRES   REMARKS
BURLINGTON     CLOUDY    71  61  70 SE6       30.16R
FAIRFIELD *    CLOUDY    73  61  64 S7        30.14R
FORT MADISON * CLOUDY    72  63  73 S3        30.16S
KEOKUK *       CLOUDY    73  64  73 SE5       30.14F
OSKALOOSA *    FAIR      69  63  82 SE8       30.13F
OTTUMWA        SUNNY     72  64  76 S9        30.13S
WASHINGTON *   MOSUNNY   72  63  73 S8        30.16S
$$

ABBREVIATIONS USED IN REMARKS
   TC - TEMPERATURES IN CELSIUS
  WCI - WIND CHILL INDEX
   HX - HEAT INDEX
  VSB - VISIBILITY
$$





USA.gov is the U.S. government's official web portal to all federal, state and local government web resources and services.